Regional Weather Roundup
Issued by NWS

Home | Current Version | Previous Version | Graphics & Text | Print | Product List | Glossary On
Versions: 1 2 3 4 5 6 7 8 9 10 11 12 13 14 15 16 17 18 19 20 21 22 23 24 25 26 27 28 29 30 31 32 33 34 35 36 37 38 39 40 41 42 43 44 45 46 47 48 49 50
000
ASUS45 KSLC 220510
RWRUT

UTAH REGIONAL WEATHER ROUNDUP
NATIONAL WEATHER SERVICE SALT LAKE CITY UT
1100 PM MDT MON AUG 21 2017

UTZ001>011-023>025-220600-

NORTHERN UTAH

CITY           SKY/WX    TMP DP  RH WIND       PRES   REMARKS
BRIGHAM CITY   CLEAR     70  45  40 CALM      30.14S
HILL AFB       PTCLDY    76  40  27 E10       30.16S
LOGAN          CLEAR     63  49  60 NW3       30.16R
OGDEN          PTCLDY    73  42  32 S8        30.13R
SALT LAKE CITY PTCLDY    78  45  30 SE6       30.12S
TOOELE VALLEY  PTCLDY    70  43  37 S9        30.15R
WENDOVER       PTCLDY    74  37  26 CALM      30.13R
HEBER CITY     PTCLDY    55  45  67 CALM      30.24S
WEST JORDAN    PTCLDY    73  51  46 SW6       30.17S

$$

UTZ011>015-024>027-220600-

CENTRAL/NORTHEAST UTAH

CITY           SKY/WX    TMP DP  RH WIND       PRES   REMARKS
PROVO AIRPORT  NOT AVBL
MOAB/CANYONLAN PTCLDY    81  38  21 W10       30.11R
DELTA          MOCLDY    72  41  33 S12       30.20R
PRICE          MOCLDY    68  37  32 N5        30.24S
ROOSEVELT      CLEAR     72  45  37 SW7       30.20S
VERNAL         CLEAR     69  42  37 VRB3      30.18R

$$

UTZ013>016-019>022-027-220600-

SOUTHERN UTAH

CITY           SKY/WX    TMP DP  RH WIND       PRES   REMARKS
BRYCE CANYON   CLOUDY    56  49  77 W9        30.42S
CEDAR CITY     CLOUDY    66  49  54 E15G22    30.26F
MILFORD        LGT RAIN  71  49  45 SW14      30.24R
ST GEORGE      PTCLDY    80  51  36 S5        30.09R
HANKSVILLE     MOCLDY    81  39  22 NW9       30.14F
BLANDING       CLOUDY    69  47  45 W8        30.34F

$$

REGIONAL REPORTS     COLORADO/ARIZONA

CITY           SKY/WX    TMP DP  RH WIND       PRES   REMARKS
CRAIG, CO      CLEAR     54  37  52 E5        30.26R
GRAND JUNCTION CLEAR     76  45  33 E14       30.15R
RIFLE, CO      CLOUDY    74  41  30 SE15      30.21R
MONTROSE, CO   CLEAR     68  45  43 E9        30.28R
CORTEZ, CO     LGT RAIN  62  57  83 NE6       30.30S
COLORADO CITY    N/A     72  52  49 NE8       30.26R
PAGE, AZ       MOCLDY    80  47  31 W9        30.14R
GRAND CANYON   MOCLDY    58  57  97 CALM      30.34S
KINGMAN, AZ    PTCLDY    65  60  84 S5        30.13R
FLAGSTAFF, AZ  CLOUDY    59  51  75 CALM      30.37R

$$

REGIONAL REPORTS    NEVADA/IDAHO/WYOMING

CITY           SKY/WX    TMP DP  RH WIND       PRES   REMARKS
LAS VEGAS, NV  PTCLDY    86  53  32 E3        30.02S
ELY, NY        MOCLDY    69  42  37 SW8       30.29R
ELKO, NV       CLEAR     75  29  18 NE13      30.17R
POCATELLO, ID  CLEAR     62  36  37 CALM      30.18R
BURLEY, ID     CLEAR     56  45  66 S5        30.14S
FORT BRIDGER,    N/A     63  30  29 W9        30.38R
EVANSTON, WY   CLOUDY    68  34  28 CALM      30.36S
ROCK SPRINGS,  CLEAR     67  28  23 N7        30.31R
KEMMERER, WY     N/A     59  28  31 NW10      30.37R

$$



USA.gov is the U.S. government's official web portal to all federal, state and local government web resources and services.